Back to catalog

SL-16 DEB

AliveLEO
NORAD 22603·DEBRIS·🇷🇺 Russia

Launched Mar 26, 1993 from Baikonur Cosmodrome

Loading…

Next Passes (next 24 hours)

TLE

FreshSource: Space-Track

Epoch: Sep 14, 2026, 09:21 UTC

1 22603U 93016M   26257.38999318 -.00000033  00000-0  10109-4 0  9996
2 22603  70.9944 223.3535 0161234 240.5783 289.1342 13.78758734683871

Track SL-16 DEB in real time with AllMySat

Download on the App Store